• In Czech Republic
  • List of Countries
  • For 7 days
  • Water Temperature
  • Satellite Maps
  • Weather Map
  • Weather Widgets
  • user-avatar
    Login

    Hourly Weather Honolulu

    Today, 23 February, Friday

    Time Temperature Precipitation Wind Pressure Humidity
    00:00 +24°C° 0.2 mm 3 mps 762 mmHg 95%
    01:00 +24°C° 0.2 mm 3 mps 762 mmHg 95%
    02:00 +24°C° 0.1 mm 3 mps 762 mmHg 95%
    03:00 +22°C° 0.1 mm 3 mps 761 mmHg 94%
    04:00 +22°C° 0.1 mm 3 mps 761 mmHg 94%
    05:00 +24°C° 0.2 mm 3 mps 761 mmHg 93%
    06:00 +23°C° 0.2 mm 4 mps 762 mmHg 93%
    07:00 +23°C° 0.2 mm 4 mps 762 mmHg 92%
    08:00 +25°C° 0 mm 4 mps 762 mmHg 91%
    09:00 +25°C° 0 mm 4 mps 762 mmHg 89%
    10:00 +25°C° 0 mm 4 mps 762 mmHg 88%
    11:00 +26°C° 0.3 mm 5 mps 762 mmHg 85%
    12:00 +26°C° 0.3 mm 5 mps 762 mmHg 83%
    13:00 +27°C° 0.3 mm 5 mps 761 mmHg 81%
    14:00 +27°C° 0.2 mm 5 mps 761 mmHg 80%
    15:00 +27°C° 0.2 mm 5 mps 761 mmHg 80%
    16:00 +27°C° 0.2 mm 5 mps 761 mmHg 79%
    17:00 +26°C° 0 mm 5 mps 761 mmHg 83%
    18:00 +25°C° 0 mm 5 mps 761 mmHg 87%
    19:00 +23°C° 0 mm 5 mps 762 mmHg 90%
    20:00 +23°C° 0 mm 5 mps 762 mmHg 90%
    21:00 +23°C° 0 mm 5 mps 762 mmHg 90%
    22:00 +23°C° 0 mm 5 mps 762 mmHg 89%
    23:00 +23°C° 0 mm 5 mps 762 mmHg 90%

    Tomorrow, 24 February, Saturday

    Time Temperature Precipitation Wind Pressure Humidity
    00:00 +23°C° 0 mm 5 mps 762 mmHg 91%
    01:00 +23°C° 0 mm 5 mps 762 mmHg 92%
    02:00 +23°C° 0 mm 5 mps 762 mmHg 92%
    03:00 +23°C° 0 mm 5 mps 762 mmHg 93%
    04:00 +23°C° 0 mm 5 mps 762 mmHg 94%
    05:00 +23°C° 0 mm 5 mps 762 mmHg 92%
    06:00 +25°C° 0 mm 5 mps 762 mmHg 90%
    07:00 +25°C° 0 mm 5 mps 763 mmHg 89%
    08:00 +26°C° 0 mm 5 mps 763 mmHg 84%
    09:00 +27°C° 0 mm 5 mps 763 mmHg 80%
    10:00 +28°C° 0 mm 5 mps 763 mmHg 75%
    11:00 +28°C° 0.2 mm 5 mps 763 mmHg 76%
    12:00 +28°C° 0.2 mm 6 mps 762 mmHg 78%
    13:00 +27°C° 0.2 mm 6 mps 762 mmHg 79%
    14:00 +27°C° 0.8 mm 6 mps 762 mmHg 81%
    15:00 +27°C° 0.8 mm 6 mps 762 mmHg 83%
    16:00 +26°C° 0.8 mm 5 mps 761 mmHg 85%
    17:00 +26°C° 0.3 mm 6 mps 762 mmHg 87%
    18:00 +24°C° 0.3 mm 6 mps 762 mmHg 89%
    19:00 +23°C° 0.3 mm 6 mps 762 mmHg 91%
    20:00 +23°C° 0.1 mm 6 mps 763 mmHg 91%
    21:00 +23°C° 0.1 mm 7 mps 763 mmHg 90%
    22:00 +23°C° 0.1 mm 7 mps 763 mmHg 90%
    23:00 +23°C° 0 mm 7 mps 763 mmHg 90%

    Day after tomorrow, 25 February, Sunday

    Time Temperature Precipitation Wind Pressure Humidity
    00:00 +23°C° 0 mm 7 mps 762 mmHg 90%
    01:00 +23°C° 0 mm 7 mps 762 mmHg 90%
    02:00 +23°C° 0 mm 7 mps 762 mmHg 90%
    03:00 +23°C° 0 mm 6 mps 762 mmHg 89%
    04:00 +23°C° 0 mm 6 mps 761 mmHg 89%
    05:00 +23°C° 0.1 mm 6 mps 762 mmHg 89%
    06:00 +23°C° 0.1 mm 6 mps 762 mmHg 88%
    07:00 +23°C° 0.1 mm 6 mps 763 mmHg 88%
    08:00 +24°C° 0.1 mm 6 mps 763 mmHg 85%
    09:00 +24°C° 0.1 mm 6 mps 763 mmHg 83%
    10:00 +26°C° 0.1 mm 6 mps 763 mmHg 81%
    11:00 +26°C° 0 mm 6 mps 763 mmHg 78%
    12:00 +27°C° 0 mm 5 mps 762 mmHg 76%
    13:00 +27°C° 0 mm 5 mps 762 mmHg 73%
    14:00 +27°C° 0 mm 5 mps 761 mmHg 74%
    15:00 +27°C° 0 mm 4 mps 761 mmHg 74%
    16:00 +27°C° 0 mm 4 mps 761 mmHg 75%
    17:00 +26°C° 0.1 mm 4 mps 762 mmHg 79%
    18:00 +25°C° 0.1 mm 4 mps 762 mmHg 83%
    19:00 +25°C° 0.1 mm 4 mps 763 mmHg 87%
    20:00 +23°C° 0.1 mm 4 mps 763 mmHg 88%
    21:00 +23°C° 0.1 mm 5 mps 764 mmHg 88%
    22:00 +23°C° 0.1 mm 5 mps 764 mmHg 89%
    23:00 +23°C° 0.1 mm 6 mps 764 mmHg 88%

    26 February, Monday

    Time Temperature Precipitation Wind Pressure Humidity
    00:00 +23°C° 0.1 mm 6 mps 763 mmHg 88%
    01:00 +23°C° 0.1 mm 6 mps 763 mmHg 87%
    02:00 +23°C° 0 mm 7 mps 763 mmHg 86%
    03:00 +23°C° 0 mm 7 mps 763 mmHg 86%
    04:00 +23°C° 0 mm 8 mps 762 mmHg 85%
    05:00 +23°C° 0 mm 8 mps 763 mmHg 84%
    06:00 +23°C° 0 mm 8 mps 763 mmHg 83%
    07:00 +23°C° 0 mm 8 mps 764 mmHg 82%
    08:00 +24°C° 0 mm 8 mps 764 mmHg 79%
    09:00 +26°C° 0 mm 7 mps 764 mmHg 75%
    10:00 +27°C° 0 mm 7 mps 764 mmHg 71%
    11:00 +27°C° 0 mm 6 mps 763 mmHg 70%
    12:00 +28°C° 0 mm 6 mps 763 mmHg 68%
    13:00 +28°C° 0 mm 6 mps 762 mmHg 66%
    14:00 +27°C° 0.1 mm 6 mps 762 mmHg 70%
    15:00 +27°C° 0.1 mm 6 mps 762 mmHg 73%
    16:00 +26°C° 0.1 mm 7 mps 762 mmHg 76%
    17:00 +24°C° 0 mm 7 mps 762 mmHg 79%
    18:00 +24°C° 0 mm 8 mps 763 mmHg 81%
    19:00 +23°C° 0 mm 9 mps 763 mmHg 84%
    20:00 +23°C° 0.1 mm 9 mps 764 mmHg 84%
    21:00 +23°C° 0.1 mm 9 mps 764 mmHg 84%
    22:00 +23°C° 0.1 mm 10 mps 764 mmHg 84%
    23:00 +23°C° 0.1 mm 9 mps 764 mmHg 84%

    27 February, Tuesday

    Time Temperature Precipitation Wind Pressure Humidity
    00:00 +23°C° 0.1 mm 9 mps 763 mmHg 85%
    01:00 +23°C° 0.1 mm 9 mps 763 mmHg 85%
    02:00 +23°C° 0 mm 9 mps 763 mmHg 85%
    03:00 +23°C° 0 mm 9 mps 763 mmHg 85%
    04:00 +23°C° 0 mm 9 mps 763 mmHg 85%
    05:00 +23°C° 0 mm 9 mps 763 mmHg 84%
    06:00 +23°C° 0 mm 9 mps 763 mmHg 83%
    07:00 +23°C° 0 mm 9 mps 764 mmHg 82%
    08:00 +24°C° 0 mm 9 mps 764 mmHg 79%
    09:00 +26°C° 0 mm 9 mps 764 mmHg 76%
    10:00 +26°C° 0 mm 9 mps 764 mmHg 73%
    11:00 +27°C° 0 mm 9 mps 763 mmHg 71%
    12:00 +27°C° 0 mm 8 mps 763 mmHg 68%
    13:00 +27°C° 0 mm 8 mps 762 mmHg 66%
    14:00 +27°C° 0 mm 8 mps 762 mmHg 66%
    15:00 +27°C° 0 mm 8 mps 762 mmHg 66%
    16:00 +27°C° 0 mm 8 mps 762 mmHg 66%
    17:00 +26°C° 0 mm 9 mps 762 mmHg 69%
    18:00 +24°C° 0 mm 9 mps 763 mmHg 73%
    19:00 +23°C° 0 mm 9 mps 763 mmHg 76%
    20:00 +23°C° 0 mm 9 mps 763 mmHg 77%
    21:00 +23°C° 0 mm 9 mps 763 mmHg 78%
    22:00 +23°C° 0 mm 9 mps 763 mmHg 79%
    23:00 +23°C° 0 mm 9 mps 763 mmHg 80%

    28 February, Wednesday

    Time Temperature Precipitation Wind Pressure Humidity
    00:00 +23°C° 0 mm 8 mps 763 mmHg 80%
    01:00 +23°C° 0 mm 8 mps 763 mmHg 81%
    02:00 +23°C° 0 mm 8 mps 763 mmHg 81%
    03:00 +23°C° 0 mm 8 mps 763 mmHg 80%
    04:00 +23°C° 0 mm 8 mps 762 mmHg 80%
    05:00 +23°C° 0 mm 8 mps 763 mmHg 79%
    06:00 +23°C° 0 mm 8 mps 763 mmHg 78%
    07:00 +23°C° 0 mm 9 mps 764 mmHg 77%
    08:00 +24°C° 0 mm 9 mps 764 mmHg 75%
    09:00 +26°C° 0 mm 9 mps 764 mmHg 73%
    10:00 +26°C° 0 mm 9 mps 764 mmHg 70%
    11:00 +26°C° 0.1 mm 9 mps 763 mmHg 71%
    12:00 +26°C° 0.1 mm 9 mps 763 mmHg 73%
    13:00 +24°C° 0.1 mm 8 mps 762 mmHg 74%
    14:00 +24°C° 0.1 mm 8 mps 762 mmHg 73%
    15:00 +24°C° 0.1 mm 8 mps 762 mmHg 73%
    16:00 +24°C° 0.1 mm 8 mps 762 mmHg 73%
    17:00 +24°C° 0.1 mm 8 mps 762 mmHg 75%
    18:00 +23°C° 0.1 mm 8 mps 763 mmHg 77%
    19:00 +23°C° 0.1 mm 8 mps 763 mmHg 80%
    20:00 +23°C° 0 mm 9 mps 763 mmHg 80%
    21:00 +23°C° 0 mm 9 mps 763 mmHg 80%
    22:00 +23°C° 0 mm 9 mps 763 mmHg 81%
    23:00 +23°C° 0 mm 9 mps 763 mmHg 81%
    Show more